AirNav   Air Wisconsin pilot careers
 
 1195 users online  

80C Lone Hickory Airport
Yadkinville, North Carolina, USA

GOING TO YADKINVILLE?


FAA INFORMATION EFFECTIVE 08 NOVEMBER 2018

Location

FAA Identifier: 80C
Lat/Long: 36-03-37.8520N / 080-41-24.3600W
36-03.630867N / 080-41.406000W
36.0605144 / -80.6901000
(estimated)
Elevation: 1015 ft. / 309 m (estimated)
Variation: 06W (1995)
From city: 6 miles S of YADKINVILLE, NC
Time zone: UTC -5 (UTC -4 during Daylight Saving Time)
Zip code: 27055

Airport Operations

Airport use: Open to the public
Activation date: 12/1997
Control tower: no
ARTCC: ATLANTA CENTER
FSS: RALEIGH FLIGHT SERVICE STATION
NOTAMs facility: RDU (NOTAM-D service available)
Attendance: IREG
Wind indicator: yes
Segmented circle: no

Airport Communications

CTAF: 122.9

Nearby radio navigation aids

VOR radial/distance  VOR name  Freq  Var
BZMr073/29.1BARRETTS MOUNTAIN VOR/DME110.8006W
GSOr274/34.6GREENSBORO VORTAC116.2003W

 
NDB name  Hdg/Dist  Freq  Var  ID
ZEPHYR181/15.132608WZEF --.. . ..-.
ASHEE133/37.941007WJUH .--- ..- ....

Airport Services

Runway Information

Runway 16/34

Dimensions: 2000 x 60 ft. / 610 x 18 m
Surface: turf, in good condition
Gradient: S.
RUNWAY 16  RUNWAY 34
Latitude: 36-03.773400N36-03.488333N
Longitude: 080-41.508000W080-41.304000W
Elevation: 943.0 ft.1015.0 ft.
Gradient: 3.6% UP
Traffic pattern: leftleft
Runway heading: 156 magnetic, 150 true336 magnetic, 330 true
Obstructions: 10 ft. road, 14 ft. from runway, 54 ft. left and right of centerline97 ft. trees, 737 ft. from runway, 79 ft. right of centerline, 7:1 slope to clear

Airport Ownership and Management from official FAA records

Ownership: Privately-owned
Owner: HAROLD HOLCOMB & JEFF STEELE
1205 RUNWAY TRAIL
YADKINVILLE, NC 27055
Phone (336) 468-0641
STEELE'S ADDRESS: 1208 RUNWAY TRAIL YADKINVILLE, NC 27055
Manager: HAROLD DEAN HOLCOMB
1205 RUNWAY TRAIL
YADKINVILLE, NC 27055
Phone (336) 468-0641

Airport Operational Statistics

Aircraft based on the field: 6
Single engine airplanes: 6
    
Aircraft operations: avg 46/month *
91% local general aviation
9% transient general aviation
* for 12-month period ending 27 August 2016

Additional Remarks

ACFT OPERATING FM PINEY RIDGE ARPT 1.3 MI NW.
PLINES 500-1000 FT N RY 16 THLD.
RY 16/34 HAS 3% GRADE; WINDS PERMITTING TKOF RY 16 LND RY 34.
NO FLIGHT TRAINING OR STUDENT PILOTS; ONLY EXPERIENCED PILOTS PERMITTED.
RY 16 DEPARTURES MAKE LEFT TURN FOR NOISE & OBSTRUCTION AVOIDANCE.

Instrument Procedures

There are no published instrument procedures at 80C.

Some nearby airports with instrument procedures:

KZEF - Elkin Municipal Airport (14 nm N)
8A7 - Twin Lakes Airport (14 nm SE)
KSVH - Statesville Regional Airport (22 nm SW)
KUKF - Wilkes County Airport (22 nm NW)
KINT - Smith Reynolds Airport (23 nm E)
 
Loc | Ops | Rwys | IFR | FBO | Links
Com | Nav | Svcs | Stats | Notes


 
Area around 80C (Lone Hickory Airport)
 
Road maps at: MapQuest Bing Google
 
Aerial photo
No photo
 
Sectional chart

 
Airport distance calculator
Flying to Lone Hickory Airport? Find the distance to fly.

From to 80C

Sunrise and sunset
Times for 20-Nov-2018
 Local
(UTC-5)
 Zulu
(UTC)
Morning civil twilight06:3811:38
Sunrise07:0512:05
Sunset17:1122:11
Evening civil twilight17:3922:39

Current date and time
Zulu (UTC)  20-Nov-2018 22:46:43
Local (UTC-5)  20-Nov-2018 17:46:43
 
METAR
KUKF 
22nm NW 
202220Z AUTO 33003KT 10SM SCT050 08/00 A3016 RMK AO2
KSVH 
23nm SW 
202220Z AUTO 01005KT 10SM CLR 11/01 A3009 RMK AO2 T01060008
KINT 
23nm E 
202154Z 30007KT 10SM CLR 12/M01 A3009 RMK AO2 SLP187 T01171006
KEXX 
25nm SE 
202220Z AUTO 00000KT 10SM CLR 12/01 A3009 RMK AO2 T01170009
KMWK 
25nm N 
202220Z AUTO 33004KT 10SM SCT048 09/02 A3013 RMK AO2 T00900015
KRUQ 
26nm S 
202220Z AUTO 33006KT 10SM CLR 11/01 A3009 RMK AO2 T01100009
KGSO 
36nm E 
202154Z 32008KT 10SM FEW055 FEW250 12/00 A3006 RMK AO2 SLP179 T01220000
KHKY 
38nm SW 
202153Z 01005KT 10SM CLR 11/01 A3009 RMK AO2 SLP179 T01060006
KJQF 
41nm S 
202150Z 01009KT 10SM CLR 13/03 A3010
KGEV 
42nm NW 
202230Z AUTO 32008G15KT 10SM OVC030 04/M02 A3008 RMK AO2 T00351020
TAF
KINT 
23nm E 
201740Z 2018/2118 32012G21KT P6SM SCT050 FM202200 33008KT P6SM SKC FM210300 VRB03KT P6SM SKC
NOTAMs
Click for the latest NOTAMs
NOTAMs are issued by the DoD/FAA and will open in a separate window not controlled by AirNav.

 

 
 

Would you like to see your business listed on this page?

 If your business provides an interesting product or service to pilots, flight crews, aircraft, or users of the Lone Hickory Airport, you should consider listing it here.  To start the listing process, click on the button below
 
Add a business
 

Other Pages about Lone Hickory Airport

Update a link
 
Copyright © AirNav, LLC. All rights reserved. Privacy Policy  Contact